User: anonymous   Login
Location: Unspecified
(0.0000°N, 0.0000°E)
Time: 10:16:48
(UTC+02:00)
Language:

DELTA 2 R/B (1) - Orbit

View from above orbital plane
View from above orbital plane
View from above satellite
View from above satellite

Ground track
Ground track

The orbit data is extracted from the following two-line orbital elements,

1 27665U 03005C   16122.86536730 -.00000105  00000-0 -78678-5 0  9993
2 27665  39.5766  44.5709 0008240 123.1099 286.1580 14.28404327692105
Epoch (UTC): 01 May 2016 20:46:07
Eccentricity: 0.0008240
inclination: 39.5766°
perigee height: 791 km
apogee height: 803 km
right ascension of ascending node: 44.5709°
argument of perigee: 123.1099°
revolutions per day: 14.28404327
mean anomaly at epoch: 286.1580°
orbit number at epoch: 69210

The dashed part of the orbit path shows where the satellite is in the earth's shadow,  

DLR